STARLINK-1366, 45569

Orbit data source: Space-Track

STARLINK-1366, 45569 is a payload satellite owned by SpaceX/Seattle (US) in LEO that was launched on Wed, 22 Apr 2020 UTC via an FALCON 9 launch vehicle from the Air Force Eastern Test Range (AFETR). Payload-class satellites include a variety of spacecraft equipped with specific instruments for various scientific and technological missions. These include communications satellites like Starlink; space stations such as the ISS; scientific satellites like the Hubble; Earth observation satellites from companies like Planet Labs, Umbra, and HawkEye 360; GPS; miniature CubeSats for education and research; and military/defense satellites.

Loading next visibility...
Identifier
45569, 2020-025AQ
Orbit
LEO
Country
Flag of USUS
Related business
Manufacturer
SpaceX/Seattle
Mission
Partially operational Commercial Communications
Bus & Motor
STARLINK, Unknown motor
Mass
260 kg wet, ~248 kg dry
Launch date (UTC)
2020-04-22 (6 years ago)
Launch vehicle
FALCON 9
Launch site
Air Force Eastern Test Range (AFETR)
Object type
Payload
Rocket body
Debris
Shape & HBR
Box + 1 Pan, 10.1 m
Radar Cross Section
13.562 m², Large (>1 m²)

Expand to show TLE details & history
Last TLE update: 6 hours ago

TLE from 6 hours ago
0 STARLINK-1366
1 45569U 20025AQ  26038.33335648  .00150649  00000-0  13024-2 0  9999
2 45569  53.0465 189.1347 0003879 310.8067  61.1763 15.68228111  5946
Epoch: 2026-02-07T08:00Z
TLE epoch observation values (Epoch: 2026-02-07T08:00:01.999Z)
Latitude
9.56082°
Longitude
-61.09357°
Altitude
362.875 km
Speed
7.694 km/s
True Right ascension
13h 05m 29s
True Declination
9° 30' 05"
Sunlit
Object was in full shadow at epoch
Visualization orbit readout
Latitude
Unknown
Longitude
Unknown
Altitude
Unknown
Speed
Unknown
Apparent Right ascension
Unknown
Apparent Declination
Unknown
Sunlit
N/A
Visualization observer readout
Local Sidereal Time
16:34:33
Azimuth
Unknown
Elevation
Unknown
Doppler factor
Unknown
Orbital elements
Apogee altitude
366.865 km
Perigee altitude
361.634 km
Semi-major axis
6,742.387 km
Eccentricity
0.00039
Inclination
53.0465°
RAAN
189.1347°
Arg. of periapsis
310.8067°
True anomaly
61.21525°
Mean anomaly
61.1763°
Eccentric anomaly
61.19578°
Mean motion
3.92033 °/min
Orbital period
91.83 mins
BSTAR
0.0013024
Loading maneuver chart data...
Computing Atmospheric mass density...

Documentation

Showing up to 5 results
|